03:24
Airports
History
Links
Donate
Help keep this website running!
PayPal
Bitcoin
This page is community maintained. The information is intended for PC simulator navigation or reference.
Always use approved charts for navigation.
IA25
Bartlett Field
Bartlett Field (IA25)
Solon, Iowa, United States (52333)
4
Lat/Lng:41° 48' 2.05" N / 91° 26' 23.61" W
41.800569 / -91.439891
Elevation:820'ft / 250mMSL
ID / ICAO:IA25
Runways:1
Longest:09-27
Grass 756m / 2,482ft
Nearby Weather03:17 GMT 2018-02-25
Nearby weather at KIOW, Iowa City Muni located 12.4 nautical miles from IA25
Altimeter: 29.62
Visibility: 10.0 statute miles
Wind: 14 knots (from 260°)
Temp: 2°c / 36°f
Humidity: 100.0%

METAR: KIOW 250317Z AUTO 26014G20KT 10SM UP FEW008 BKN012 OVC032 02/02 A2962 RMK AO2 RAB00E15UPB15 P0000 T00220017

(Powered by phpweather)
Nearby VORs <50NM
Nearby NDBs
Runway 09 / 27
Dimensions:756.4 x 30.5m 2482' x 100'ft
Surface:Grass
Edge Lights:Low intensity
Runway 09 [A]Runway 27 [B]
Heading:091°TH 271°TH
Lat:
Lng:
41° 48' 2.48"N
91° 26' 40.16"W
41° 48' 1.62"N
91° 26' 7.06"W
User Notes and Comments
41° 48' 2.05" N / 91° 26' 23.61" W
Distance To
Airport ID:
Nearby Airports
(R) Picayune 7.1 NM
IA16 SSW 205°
(U) Iowa City Muni 12.4 NM
KIOW ( WX ) SSW 206°
(U) Mathews Memorial 15.0 NM
8C4 E 99°
(C) The Eastern Iowa 15.1 NM
KCID ( WX ) WNW 292°
(R) Green Castle 15.2 NM
IA24 WSW 258°
4 Marion 16.5 NM
C17 NNW 343°
4 Lerchs 18.8 NM
7C0 N 11°
VFR Chart
Flight Planning at SkyVector.com